contact:dominique.lefevre@mio.osupytheas.fr, maurice.libes@osupytheas.fr, didier.mallarino@osupytheas.fr
Project:EMSO http://www.emso-fr.org/EMSO-France
Depth: 2436.0 m
Title:EMSO Ligure Ouest : Data MII capteur AQUADOPP
Date,Latitude,Longitude,X_East,Y_North,Z_Up,Amplitude_X,Amplitude_Y,Amplitude_Z,Batterie,SoundSpeed,Heading,Pitch,Roll,Pressure,TIS,Speed,Direction
, degrees North, degrees East, m.s-1, m.s-1,m.s-1, 1, 1, 1, Volt, m.s-1, degree, degree, degree, dbar, degree_C, m.s-1, degree
2020-02-14T00:04:03,42.805,6.029,0.025,0.014,0.002,111.0,115.0,107.0,13.4,1505.3,325.6,-0.8,1.8,2470.357,13.31,0.028,60.7
2020-02-14T00:07:03,42.805,6.029,0.057,0.007,0.01,112.0,114.0,108.0,13.3,1505.3,326.4,-0.7,1.8,2470.312,13.31,0.057,83.0
2020-02-14T00:10:03,42.805,6.029,0.045,0.014,0.031,111.0,115.0,106.0,13.4,1505.3,327.9,-0.7,1.8,2470.365,13.32,0.047,72.7
2020-02-14T00:13:03,42.805,6.029,0.027,0.01,0.01,111.0,117.0,108.0,13.4,1505.3,323.5,-0.7,1.8,2470.338,13.32,0.028,69.7
2020-02-14T00:16:03,42.805,6.029,0.026,0.01,0.018,110.0,116.0,106.0,13.4,1505.3,326.3,-0.7,1.8,2470.342,13.32,0.027,69.0
2020-02-14T00:19:03,42.805,6.029,0.029,0.019,-0.015,111.0,115.0,106.0,13.3,1505.3,326.9,-0.7,1.9,2470.343,13.33,0.034,56.8
2020-02-14T00:22:03,42.805,6.029,0.019,0.013,0.002,111.0,115.0,105.0,13.4,1505.3,323.1,-0.7,1.8,2470.346,13.33,0.023,55.6
2020-02-14T00:25:03,42.805,6.029,0.008,0.0,0.001,111.0,115.0,108.0,13.3,1505.3,327.3,-0.7,1.9,2470.304,13.33,0.008,90.0
2020-02-14T00:28:03,42.805,6.029,0.008,0.015,-0.041,111.0,115.0,105.0,13.4,1505.3,326.7,-0.7,1.9,2470.264,13.33,0.017,28.1
2020-02-14T00:31:03,42.805,6.029,0.038,0.005,0.0,109.0,115.0,106.0,13.4,1505.3,323.9,-0.7,1.8,2470.294,13.33,0.038,82.5
2020-02-14T00:34:03,42.805,6.029,0.031,0.029,0.01,110.0,114.0,106.0,13.3,1505.3,326.5,-0.7,1.8,2470.324,13.33,0.042,46.9
2020-02-14T00:37:03,42.805,6.029,-0.011,0.026,-0.007,111.0,112.0,106.0,13.3,1505.3,326.8,-0.7,1.8,2470.33,13.33,0.028,337.1
2020-02-14T00:40:03,42.805,6.029,-0.002,0.002,-0.016,109.0,114.0,107.0,13.4,1505.3,326.6,-0.7,1.8,2470.283,13.33,0.002,315.0
2020-02-14T00:43:03,42.805,6.029,0.02,0.023,-0.04,110.0,113.0,106.0,13.4,1505.3,323.9,-0.7,1.8,2470.259,13.33,0.03,41.0
2020-02-14T00:46:03,42.805,6.029,0.015,0.0,-0.002,109.0,113.0,105.0,13.3,1505.3,326.5,-0.7,1.8,2470.282,13.33,0.015,90.0
2020-02-14T00:49:03,42.805,6.029,0.019,0.006,-0.012,109.0,115.0,106.0,13.3,1505.3,326.4,-0.7,1.8,2470.285,13.33,0.019,72.5
2020-02-14T00:52:03,42.805,6.029,0.021,0.005,0.006,110.0,115.0,105.0,13.4,1505.3,324.7,-0.7,1.9,2470.277,13.33,0.021,76.6
2020-02-14T00:55:03,42.805,6.029,0.038,0.015,0.032,111.0,115.0,104.0,13.4,1505.3,326.3,-0.7,1.8,2470.277,13.33,0.04,68.5
2020-02-14T00:58:03,42.805,6.029,0.05,0.007,0.036,110.0,114.0,106.0,13.4,1505.3,328.0,-0.7,1.9,2470.291,13.33,0.05,82.0
2020-02-14T01:04:03,42.805,6.029,0.01,0.001,-0.012,111.0,115.0,107.0,13.4,1505.3,324.7,-0.7,1.8,2470.31,13.31,0.01,84.3
2020-02-14T01:07:04,42.805,6.029,0.021,0.006,-0.026,111.0,115.0,106.0,13.4,1505.3,325.0,-0.7,1.8,2470.301,13.31,0.021,74.1
2020-02-14T01:10:03,42.805,6.029,0.054,0.03,0.022,109.0,115.0,107.0,13.4,1505.3,323.7,-0.7,1.9,2470.251,13.32,0.061,60.9
2020-02-14T01:13:03,42.805,6.029,0.03,0.035,0.019,110.0,115.0,106.0,13.4,1505.3,326.7,-0.7,1.8,2470.226,13.32,0.046,40.6
2020-02-14T01:16:03,42.805,6.029,0.03,0.011,0.006,111.0,114.0,105.0,13.4,1505.3,326.4,-0.7,1.9,2470.302,13.32,0.031,69.9
2020-02-14T01:19:03,42.805,6.029,0.015,0.01,-0.003,109.0,116.0,105.0,13.4,1505.3,326.0,-0.7,1.8,2470.281,13.32,0.018,56.3
2020-02-14T01:22:03,42.805,6.029,0.023,0.02,-0.023,109.0,114.0,106.0,13.4,1505.3,324.0,-0.7,1.8,2470.268,13.32,0.03,49.0
2020-02-14T01:25:03,42.805,6.029,0.024,0.024,-0.008,108.0,116.0,105.0,13.4,1505.3,328.4,-0.7,1.9,2470.228,13.32,0.033,45.0
2020-02-14T01:28:03,42.805,6.029,0.016,0.029,-0.029,109.0,116.0,106.0,13.3,1505.3,326.9,-0.7,1.8,2470.271,13.32,0.033,28.9
2020-02-14T01:31:03,42.805,6.029,0.007,0.021,0.0,110.0,116.0,105.0,13.3,1505.3,323.1,-0.7,1.8,2470.248,13.32,0.022,18.4
2020-02-14T01:34:03,42.805,6.029,0.031,0.007,-0.02,110.0,115.0,104.0,13.3,1505.3,327.4,-0.7,1.8,2470.256,13.32,0.031,77.3
2020-02-14T01:37:03,42.805,6.029,0.012,0.017,0.004,109.0,115.0,104.0,13.4,1505.3,324.7,-0.7,1.9,2470.254,13.32,0.02,35.2
2020-02-14T01:40:03,42.805,6.029,0.028,0.031,-0.017,108.0,116.0,106.0,13.3,1505.3,324.5,-0.7,1.8,2470.288,13.32,0.041,42.1
2020-02-14T01:43:03,42.805,6.029,0.027,0.015,-0.009,108.0,116.0,104.0,13.4,1505.3,326.4,-0.7,1.8,2470.259,13.32,0.03,60.9
2020-02-14T01:46:03,42.805,6.029,-0.003,0.012,-0.012,108.0,117.0,104.0,13.4,1505.3,323.1,-0.7,1.8,2470.224,13.32,0.012,346.0
2020-02-14T01:49:03,42.805,6.029,0.047,0.01,0.0,109.0,117.0,103.0,13.4,1505.3,326.9,-0.7,1.8,2470.236,13.32,0.048,78.0
2020-02-14T01:52:03,42.805,6.029,0.024,0.035,-0.009,108.0,116.0,104.0,13.3,1505.3,325.0,-0.7,1.8,2470.219,13.32,0.042,34.4
2020-02-14T01:55:03,42.805,6.029,0.024,0.014,-0.021,108.0,117.0,104.0,13.4,1505.3,328.0,-0.7,1.8,2470.219,13.32,0.027,59.7
2020-02-14T01:58:03,42.805,6.029,0.024,0.028,-0.013,108.0,117.0,104.0,13.4,1505.3,325.2,-0.7,1.8,2470.244,13.32,0.036,40.6
2020-02-14T02:04:03,42.805,6.029,0.015,0.025,-0.01,109.0,115.0,106.0,13.4,1505.2,325.7,-0.8,1.8,2470.299,13.3,0.029,31.0
2020-02-14T02:07:03,42.805,6.029,0.039,0.014,0.013,108.0,115.0,104.0,13.4,1505.3,327.9,-0.7,1.8,2470.278,13.31,0.041,70.3
2020-02-14T02:10:03,42.805,6.029,0.013,0.038,0.027,109.0,117.0,105.0,13.4,1505.3,326.1,-0.7,1.8,2470.287,13.32,0.04,18.9
2020-02-14T02:13:03,42.805,6.029,0.022,0.024,-0.012,109.0,116.0,104.0,13.3,1505.3,328.0,-0.7,1.9,2470.256,13.32,0.032,42.5
2020-02-14T02:16:03,42.805,6.029,0.022,0.02,-0.031,109.0,116.0,105.0,13.4,1505.3,324.6,-0.7,1.8,2470.251,13.32,0.029,47.7
2020-02-14T02:19:03,42.805,6.029,0.031,0.031,-0.012,109.0,115.0,104.0,13.4,1505.3,326.6,-0.7,1.8,2470.266,13.32,0.043,45.0
2020-02-14T02:22:03,42.805,6.029,0.024,0.044,-0.021,109.0,118.0,105.0,13.3,1505.3,324.0,-0.7,1.8,2470.243,13.32,0.05,28.6
2020-02-14T02:25:03,42.805,6.029,0.017,0.007,0.0,108.0,116.0,104.0,13.3,1505.3,324.7,-0.7,1.8,2470.232,13.32,0.018,67.6
2020-02-14T02:28:03,42.805,6.029,0.026,0.016,0.005,107.0,117.0,103.0,13.3,1505.3,326.8,-0.7,1.8,2470.241,13.32,0.03,58.4
2020-02-14T02:31:03,42.805,6.029,0.046,0.023,0.0,109.0,117.0,104.0,13.4,1505.3,327.3,-0.7,1.8,2470.225,13.32,0.051,63.4
2020-02-14T02:34:03,42.805,6.029,0.019,0.04,-0.031,108.0,118.0,104.0,13.4,1505.3,324.9,-0.7,1.8,2470.195,13.32,0.044,25.4
2020-02-14T02:37:03,42.805,6.029,0.033,0.02,0.004,108.0,117.0,105.0,13.4,1505.3,324.1,-0.7,1.8,2470.22,13.32,0.038,58.8
2020-02-14T02:40:03,42.805,6.029,0.022,0.022,-0.019,108.0,117.0,105.0,13.4,1505.3,326.7,-0.7,1.8,2470.208,13.32,0.031,45.0
2020-02-14T02:43:03,42.805,6.029,0.035,0.036,0.006,107.0,117.0,105.0,13.4,1505.3,325.3,-0.8,1.8,2470.233,13.32,0.05,44.2
2020-02-14T02:46:03,42.805,6.029,-0.001,0.026,-0.01,108.0,118.0,104.0,13.3,1505.3,322.8,-0.7,1.8,2470.267,13.32,0.026,357.8
2020-02-14T02:49:03,42.805,6.029,0.015,0.013,0.006,107.0,117.0,104.0,13.3,1505.3,326.9,-0.7,1.9,2470.214,13.32,0.019,49.1
2020-02-14T02:52:03,42.805,6.029,0.035,0.022,-0.014,108.0,116.0,105.0,13.4,1505.3,326.8,-0.7,1.9,2470.203,13.32,0.041,57.8
2020-02-14T02:55:03,42.805,6.029,0.027,0.025,-0.028,108.0,117.0,105.0,13.3,1505.3,323.7,-0.7,1.8,2470.227,13.32,0.036,47.2
2020-02-14T02:58:03,42.805,6.029,0.028,0.031,-0.032,108.0,115.0,104.0,13.4,1505.3,328.4,-0.7,1.8,2470.216,13.32,0.041,42.1
2020-02-14T03:04:03,42.805,6.029,0.026,0.018,-0.005,107.0,115.0,104.0,13.4,1505.2,327.2,-0.7,1.8,2470.242,13.3,0.031,55.3
2020-02-14T03:07:03,42.805,6.029,0.025,0.024,0.002,108.0,117.0,105.0,13.4,1505.3,323.6,-0.7,1.8,2470.217,13.31,0.034,46.2
2020-02-14T03:10:03,42.805,6.029,0.006,0.019,-0.022,108.0,116.0,104.0,13.4,1505.3,325.0,-0.7,1.8,2470.225,13.32,0.019,17.5
2020-02-14T03:13:03,42.805,6.029,0.016,0.023,-0.025,108.0,115.0,104.0,13.4,1505.3,327.7,-0.7,1.8,2470.206,13.32,0.028,34.8
2020-02-14T03:16:03,42.805,6.029,0.029,0.015,-0.007,108.0,114.0,104.0,13.4,1505.3,324.7,-0.7,1.9,2470.204,13.32,0.032,62.6
2020-02-14T03:19:03,42.805,6.029,0.022,0.013,-0.031,107.0,116.0,105.0,13.4,1505.3,327.3,-0.7,1.8,2470.233,13.32,0.025,59.4
2020-02-14T03:22:03,42.805,6.029,-0.009,0.009,-0.005,107.0,119.0,103.0,13.3,1505.3,323.0,-0.7,1.8,2470.225,13.32,0.012,315.0
2020-02-14T03:25:03,42.805,6.029,0.022,0.006,-0.027,108.0,115.0,104.0,13.4,1505.3,327.0,-0.7,1.8,2470.235,13.32,0.022,74.7
2020-02-14T03:28:03,42.805,6.029,0.021,0.023,-0.019,107.0,116.0,104.0,13.4,1505.3,326.6,-0.7,1.8,2470.187,13.32,0.031,42.4
2020-02-14T03:31:03,42.805,6.029,0.013,0.024,-0.033,107.0,114.0,104.0,13.3,1505.3,327.3,-0.7,1.8,2470.232,13.32,0.027,28.4
2020-02-14T03:34:03,42.805,6.029,0.019,0.018,-0.018,106.0,117.0,104.0,13.3,1505.3,323.9,-0.7,1.8,2470.178,13.32,0.026,46.5
2020-02-14T03:37:03,42.805,6.029,0.037,0.023,-0.025,107.0,117.0,103.0,13.4,1505.3,325.3,-0.7,1.8,2470.231,13.32,0.043,58.1
2020-02-14T03:40:03,42.805,6.029,0.023,0.013,0.014,110.0,118.0,103.0,13.3,1505.3,325.4,-0.7,1.8,2470.193,13.32,0.026,60.5
2020-02-14T03:43:03,42.805,6.029,0.028,0.021,-0.003,109.0,116.0,103.0,13.3,1505.3,323.8,-0.7,1.8,2470.187,13.32,0.035,53.1
2020-02-14T03:46:03,42.805,6.029,0.021,0.023,-0.004,108.0,117.0,104.0,13.4,1505.3,328.6,-0.7,1.8,2470.175,13.32,0.031,42.4
2020-02-14T03:49:03,42.805,6.029,0.021,0.025,-0.02,109.0,117.0,105.0,13.4,1505.3,324.7,-0.7,1.9,2470.172,13.32,0.032,40.0
2020-02-14T03:52:03,42.805,6.029,0.047,0.023,0.02,107.0,116.0,105.0,13.4,1505.3,326.8,-0.7,1.8,2470.215,13.32,0.052,63.9
2020-02-14T03:55:03,42.805,6.029,0.033,0.018,-0.004,108.0,116.0,104.0,13.4,1505.3,325.7,-0.7,1.8,2470.21,13.32,0.037,61.4
2020-02-14T03:58:03,42.805,6.029,0.016,0.016,-0.02,108.0,115.0,104.0,13.4,1505.3,325.1,-0.7,1.8,2470.171,13.32,0.022,45.0
2020-02-14T04:04:03,42.805,6.029,0.046,0.008,0.007,109.0,119.0,104.0,13.4,1505.2,326.4,-0.7,1.8,2470.196,13.3,0.046,80.1
2020-02-14T04:07:03,42.805,6.029,0.012,0.025,0.016,109.0,115.0,105.0,13.4,1505.3,322.8,-0.7,1.8,2470.232,13.31,0.027,25.6
2020-02-14T04:10:03,42.805,6.029,0.033,-0.005,-0.012,108.0,117.0,104.0,13.4,1505.3,326.2,-0.7,1.8,2470.181,13.32,0.033,98.6
2020-02-14T04:13:03,42.805,6.029,0.024,0.026,0.006,108.0,117.0,105.0,13.4,1505.3,325.9,-0.7,1.8,2470.206,13.32,0.035,42.7
2020-02-14T04:16:03,42.805,6.029,0.026,0.038,0.0,108.0,117.0,104.0,13.3,1505.3,325.5,-0.7,1.8,2470.215,13.32,0.046,34.4
2020-02-14T04:19:03,42.805,6.029,0.027,0.031,0.008,108.0,116.0,104.0,13.4,1505.3,323.1,-0.7,1.8,2470.185,13.32,0.041,41.1
2020-02-14T04:22:03,42.805,6.029,0.02,0.017,-0.008,110.0,117.0,104.0,13.4,1505.3,327.1,-0.7,1.8,2470.186,13.32,0.026,49.6
2020-02-14T04:28:03,42.805,6.029,0.012,0.004,-0.032,108.0,116.0,105.0,13.4,1505.2,325.8,-0.8,1.8,2470.241,13.3,0.012,71.6
2020-02-14T04:31:03,42.805,6.029,0.022,0.029,-0.023,109.0,117.0,105.0,13.4,1505.3,323.7,-0.7,1.8,2470.189,13.31,0.036,37.2
2020-02-14T04:34:03,42.805,6.029,0.011,0.034,-0.013,108.0,114.0,104.0,13.4,1505.3,327.2,-0.7,1.8,2470.213,13.32,0.035,17.9
2020-02-14T04:37:03,42.805,6.029,0.037,0.023,0.012,109.0,116.0,105.0,13.4,1505.3,327.4,-0.7,1.8,2470.187,13.32,0.043,58.1
2020-02-14T04:40:03,42.805,6.029,0.03,0.041,-0.008,108.0,115.0,105.0,13.4,1505.3,323.3,-0.7,1.9,2470.171,13.32,0.05,36.2
2020-02-14T04:43:03,42.805,6.029,0.03,0.024,-0.022,109.0,115.0,106.0,13.4,1505.3,325.4,-0.7,1.8,2470.204,13.32,0.038,51.3
2020-02-14T04:46:03,42.805,6.029,0.03,0.016,-0.016,109.0,115.0,104.0,13.4,1505.3,324.0,-0.7,1.8,2470.182,13.32,0.034,61.9
2020-02-14T04:49:03,42.805,6.029,-0.003,0.0,-0.01,109.0,115.0,104.0,13.3,1505.3,324.6,-0.8,1.9,2470.161,13.32,0.003,270.0
2020-02-14T04:52:03,42.805,6.029,0.036,0.017,-0.027,109.0,117.0,104.0,13.3,1505.3,328.2,-0.7,1.8,2470.195,13.32,0.039,64.7
2020-02-14T04:55:03,42.805,6.029,0.039,0.03,0.01,111.0,116.0,105.0,13.4,1505.3,323.9,-0.7,1.8,2470.164,13.32,0.049,52.4
2020-02-14T04:58:03,42.805,6.029,0.018,0.028,0.005,109.0,115.0,105.0,13.3,1505.3,327.8,-0.7,1.8,2470.21,13.32,0.033,32.7
2020-02-14T05:04:03,42.805,6.029,0.023,-0.011,-0.017,108.0,115.0,105.0,13.3,1505.2,324.9,-0.8,1.8,2470.193,13.3,0.025,115.6
2020-02-14T05:07:03,42.805,6.029,0.032,0.023,0.004,109.0,114.0,105.0,13.4,1505.3,324.9,-0.8,1.9,2470.176,13.31,0.039,54.3
2020-02-14T05:10:03,42.805,6.029,0.049,0.0,-0.026,108.0,113.0,104.0,13.3,1505.3,326.0,-0.7,1.8,2470.197,13.32,0.049,90.0
2020-02-14T05:13:03,42.805,6.029,0.027,0.024,-0.006,109.0,116.0,106.0,13.4,1505.3,327.2,-0.7,1.8,2470.218,13.32,0.036,48.4
2020-02-14T05:16:03,42.805,6.029,0.025,0.019,-0.016,109.0,114.0,105.0,13.4,1505.3,324.4,-0.8,1.8,2470.183,13.32,0.031,52.8
2020-02-14T05:19:03,42.805,6.029,0.028,0.021,0.001,109.0,113.0,106.0,13.3,1505.3,323.9,-0.7,1.8,2470.232,13.32,0.035,53.1
2020-02-14T05:22:03,42.805,6.029,0.006,0.003,-0.019,111.0,114.0,104.0,13.4,1505.3,325.5,-0.7,1.8,2470.195,13.32,0.006,63.4
2020-02-14T05:25:03,42.805,6.029,0.027,0.014,-0.008,109.0,114.0,106.0,13.3,1505.3,328.7,-0.7,1.9,2470.187,13.32,0.03,62.6
2020-02-14T05:28:03,42.805,6.029,0.031,0.01,-0.004,109.0,116.0,105.0,13.3,1505.3,324.6,-0.7,1.8,2470.156,13.32,0.032,72.1
2020-02-14T05:31:03,42.805,6.029,0.033,0.001,0.012,108.0,116.0,105.0,13.4,1505.3,327.4,-0.7,1.8,2470.195,13.32,0.033,88.3
2020-02-14T05:34:03,42.805,6.029,0.017,0.019,-0.011,110.0,115.0,105.0,13.4,1505.3,323.0,-0.7,1.9,2470.174,13.32,0.025,41.8
2020-02-14T05:37:03,42.805,6.029,0.04,0.0,0.035,109.0,114.0,105.0,13.3,1505.3,328.0,-0.7,1.9,2470.155,13.32,0.04,90.0
2020-02-14T05:40:03,42.805,6.029,0.036,0.016,-0.004,110.0,115.0,106.0,13.4,1505.3,325.4,-0.7,1.8,2470.156,13.32,0.039,66.0
2020-02-14T05:43:03,42.805,6.029,0.03,0.0,0.017,109.0,114.0,105.0,13.4,1505.3,327.2,-0.7,1.8,2470.147,13.32,0.03,90.0
2020-02-14T05:46:03,42.805,6.029,0.017,0.007,0.008,110.0,114.0,106.0,13.4,1505.3,326.4,-0.7,1.8,2470.149,13.32,0.018,67.6
2020-02-14T05:49:03,42.805,6.029,0.022,0.008,0.01,109.0,114.0,105.0,13.4,1505.3,323.4,-0.7,1.8,2470.161,13.32,0.023,70.0
2020-02-14T05:52:03,42.805,6.029,-0.011,0.019,-0.03,109.0,115.0,106.0,13.4,1505.3,325.1,-0.7,1.8,2470.109,13.32,0.021,329.9
2020-02-14T05:55:03,42.805,6.029,0.036,0.018,-0.015,109.0,114.0,105.0,13.4,1505.3,323.0,-0.7,1.8,2470.175,13.32,0.04,63.4
2020-02-14T05:58:03,42.805,6.029,0.026,0.01,-0.007,109.0,114.0,105.0,13.4,1505.3,324.8,-0.7,1.8,2470.137,13.32,0.027,69.0
2020-02-14T06:04:03,42.805,6.029,0.009,0.005,-0.007,110.0,115.0,105.0,13.4,1505.2,326.0,-0.7,1.8,2470.271,13.3,0.01,60.9
2020-02-14T06:07:03,42.805,6.029,0.019,0.003,-0.022,109.0,112.0,106.0,13.4,1505.3,328.2,-0.7,1.9,2470.193,13.31,0.019,81.0
2020-02-14T06:10:03,42.805,6.029,0.024,-0.009,0.004,110.0,117.0,104.0,13.3,1505.3,323.6,-0.7,1.8,2470.14,13.32,0.025,110.6
2020-02-14T06:13:03,42.805,6.029,0.043,0.0,0.029,109.0,114.0,104.0,13.4,1505.3,324.6,-0.7,1.8,2470.21,13.32,0.043,90.0
2020-02-14T06:16:03,42.805,6.029,0.01,0.01,-0.021,109.0,114.0,105.0,13.4,1505.3,324.1,-0.7,1.9,2470.179,13.32,0.014,45.0
2020-02-14T06:19:03,42.805,6.029,0.032,-0.002,-0.027,108.0,115.0,104.0,13.4,1505.3,325.1,-0.7,1.8,2470.183,13.32,0.032,93.6
2020-02-14T06:22:03,42.805,6.029,0.026,0.026,-0.004,108.0,114.0,106.0,13.4,1505.3,328.7,-0.7,1.8,2470.178,13.32,0.036,45.0
2020-02-14T06:25:03,42.805,6.029,0.036,0.011,0.017,108.0,115.0,105.0,13.3,1505.3,325.3,-0.7,1.9,2470.192,13.32,0.037,73.0
2020-02-14T06:28:03,42.805,6.029,0.022,0.013,0.003,110.0,113.0,104.0,13.4,1505.3,326.6,-0.7,1.8,2470.144,13.32,0.025,59.4
2020-02-14T06:31:03,42.805,6.029,0.04,0.014,0.008,109.0,113.0,104.0,13.4,1505.3,324.6,-0.7,1.8,2470.192,13.32,0.042,70.7
2020-02-14T06:34:03,42.805,6.029,0.011,0.011,0.018,108.0,114.0,105.0,13.4,1505.3,324.2,-0.7,1.8,2470.17,13.32,0.015,45.0
2020-02-14T06:37:03,42.805,6.029,0.041,-0.01,-0.003,109.0,114.0,106.0,13.4,1505.3,325.4,-0.7,1.8,2470.188,13.32,0.042,103.7
2020-02-14T06:40:03,42.805,6.029,0.029,0.022,-0.01,108.0,112.0,105.0,13.4,1505.3,326.4,-0.7,1.8,2470.137,13.32,0.036,52.8
2020-02-14T06:43:03,42.805,6.029,0.026,-0.001,-0.021,110.0,114.0,105.0,13.4,1505.3,323.5,-0.7,1.9,2470.149,13.32,0.026,92.2
2020-02-14T06:46:03,42.805,6.029,0.017,0.012,-0.044,109.0,114.0,107.0,13.4,1505.3,327.0,-0.7,1.8,2470.205,13.32,0.02,54.8
2020-02-14T06:49:03,42.805,6.029,0.051,0.012,0.007,110.0,113.0,105.0,13.4,1505.3,325.3,-0.7,1.8,2470.194,13.32,0.052,76.8
2020-02-14T06:52:03,42.805,6.029,0.034,0.017,-0.022,109.0,114.0,105.0,13.4,1505.3,324.2,-0.7,1.8,2470.158,13.32,0.038,63.4
2020-02-14T06:55:03,42.805,6.029,-0.003,0.013,-0.028,111.0,114.0,104.0,13.4,1505.3,326.3,-0.7,1.8,2470.198,13.32,0.013,347.0
2020-02-14T06:58:03,42.805,6.029,0.032,0.013,-0.005,108.0,113.0,105.0,13.4,1505.3,323.1,-0.7,1.8,2470.195,13.32,0.034,67.9
2020-02-14T07:04:03,42.805,6.029,0.031,-0.009,-0.007,110.0,114.0,105.0,13.3,1505.2,324.6,-0.7,1.8,2470.245,13.3,0.032,106.2
2020-02-14T07:07:03,42.805,6.029,0.015,-0.004,-0.016,109.0,113.0,105.0,13.4,1505.3,327.5,-0.7,1.9,2470.247,13.31,0.015,104.9
2020-02-14T07:10:03,42.805,6.029,0.042,0.001,-0.004,108.0,113.0,105.0,13.4,1505.3,323.1,-0.7,1.8,2470.213,13.32,0.042,88.6
2020-02-14T07:13:03,42.805,6.029,0.04,0.017,0.013,110.0,114.0,105.0,13.3,1505.3,327.6,-0.7,1.8,2470.248,13.32,0.043,67.0
2020-02-14T07:16:03,42.805,6.029,0.023,0.013,-0.014,110.0,113.0,104.0,13.4,1505.3,325.1,-0.7,1.9,2470.218,13.32,0.026,60.5
2020-02-14T07:19:03,42.805,6.029,0.059,0.003,0.014,109.0,112.0,105.0,13.4,1505.3,326.5,-0.7,1.8,2470.241,13.32,0.059,87.1
2020-02-14T07:22:03,42.805,6.029,0.033,0.01,-0.014,110.0,113.0,105.0,13.4,1505.3,324.6,-0.7,1.8,2470.226,13.32,0.034,73.1
2020-02-14T07:25:03,42.805,6.029,0.032,0.009,-0.025,109.0,110.0,106.0,13.3,1505.3,325.1,-0.7,1.9,2470.232,13.32,0.033,74.3
2020-02-14T07:28:03,42.805,6.029,0.023,0.012,0.001,109.0,112.0,105.0,13.4,1505.3,328.0,-0.7,1.8,2470.227,13.33,0.025,62.4
2020-02-14T07:31:03,42.805,6.029,0.019,0.0,-0.015,109.0,113.0,104.0,13.4,1505.3,323.0,-0.7,1.8,2470.224,13.32,0.019,90.0
2020-02-14T07:34:03,42.805,6.029,0.039,0.006,-0.012,109.0,112.0,106.0,13.4,1505.3,325.5,-0.7,1.8,2470.247,13.32,0.039,81.3
2020-02-14T07:37:03,42.805,6.029,0.03,-0.006,-0.012,109.0,114.0,105.0,13.4,1505.3,327.2,-0.7,1.8,2470.307,13.32,0.03,101.3
2020-02-14T07:40:03,42.805,6.029,0.03,0.019,-0.003,110.0,112.0,105.0,13.4,1505.3,327.2,-0.7,1.8,2470.205,13.32,0.035,57.7
2020-02-14T07:43:03,42.805,6.029,0.035,0.012,-0.011,108.0,111.0,105.0,13.4,1505.3,327.2,-0.7,1.8,2470.229,13.33,0.037,71.1
2020-02-14T07:46:03,42.805,6.029,0.008,0.011,-0.039,110.0,111.0,105.0,13.4,1505.3,323.7,-0.8,1.8,2470.213,13.33,0.013,36.0
2020-02-14T07:49:03,42.805,6.029,0.027,0.008,0.002,110.0,113.0,106.0,13.4,1505.3,325.7,-0.7,1.9,2470.255,13.33,0.028,73.5
2020-02-14T07:52:03,42.805,6.029,0.035,0.0,-0.019,110.0,113.0,106.0,13.4,1505.3,327.8,-0.7,1.8,2470.27,13.33,0.035,90.0
2020-02-14T07:55:03,42.805,6.029,0.022,0.0,-0.03,110.0,111.0,105.0,13.4,1505.3,325.1,-0.7,1.8,2470.241,13.33,0.022,90.0
2020-02-14T07:58:03,42.805,6.029,-0.002,0.008,-0.043,110.0,112.0,105.0,13.3,1505.3,328.3,-0.7,1.8,2470.254,13.33,0.008,346.0
2020-02-14T08:04:03,42.805,6.029,0.04,0.001,-0.032,108.0,112.0,105.0,13.4,1505.3,325.6,-0.7,1.8,2470.301,13.31,0.04,88.6
2020-02-14T08:07:03,42.805,6.029,0.025,-0.002,-0.011,107.0,112.0,104.0,13.4,1505.3,324.1,-0.7,1.8,2470.284,13.31,0.025,94.6
2020-02-14T08:10:03,42.805,6.029,0.041,0.011,0.019,108.0,112.0,105.0,13.4,1505.3,326.5,-0.7,1.8,2470.283,13.32,0.042,75.0
2020-02-14T08:13:03,42.805,6.029,0.037,-0.01,0.011,111.0,111.0,105.0,13.3,1505.3,326.8,-0.8,1.8,2470.286,13.32,0.038,105.1
2020-02-14T08:16:03,42.805,6.029,0.029,0.001,0.005,108.0,112.0,105.0,13.3,1505.3,325.8,-0.7,1.8,2470.302,13.32,0.029,88.0
2020-02-14T08:19:03,42.805,6.029,0.022,0.019,0.008,108.0,111.0,104.0,13.4,1505.3,324.9,-0.7,1.8,2470.301,13.32,0.029,49.2
2020-02-14T08:22:03,42.805,6.029,0.017,0.006,-0.013,109.0,111.0,105.0,13.4,1505.3,325.0,-0.7,1.8,2470.261,13.32,0.018,70.6
2020-02-14T08:25:03,42.805,6.029,0.036,0.02,-0.039,109.0,111.0,105.0,13.3,1505.3,324.2,-0.7,1.8,2470.282,13.32,0.041,60.9
2020-02-14T08:28:03,42.805,6.029,0.008,-0.005,-0.024,109.0,111.0,105.0,13.3,1505.3,328.0,-0.7,1.8,2470.291,13.32,0.009,122.0
2020-02-14T08:31:03,42.805,6.029,0.035,0.001,0.003,108.0,111.0,105.0,13.4,1505.3,326.0,-0.7,1.8,2470.317,13.32,0.035,88.4
2020-02-14T08:34:03,42.805,6.029,0.038,-0.02,-0.02,109.0,109.0,105.0,13.4,1505.3,326.8,-0.7,1.8,2470.276,13.32,0.042,117.8
2020-02-14T08:37:03,42.805,6.029,0.028,-0.005,0.001,107.0,111.0,106.0,13.4,1505.3,323.3,-0.7,1.8,2470.292,13.32,0.028,100.1
2020-02-14T08:40:03,42.805,6.029,0.036,0.0,-0.001,108.0,110.0,104.0,13.4,1505.3,327.6,-0.7,1.8,2470.329,13.32,0.036,90.0
2020-02-14T08:43:03,42.805,6.029,0.052,0.006,0.017,109.0,110.0,104.0,13.4,1505.3,325.0,-0.7,1.8,2470.32,13.33,0.052,83.4
2020-02-14T08:46:03,42.805,6.029,0.024,-0.013,0.001,109.0,112.0,104.0,13.4,1505.3,323.1,-0.7,1.8,2470.326,13.32,0.027,118.4
2020-02-14T08:49:03,42.805,6.029,0.04,-0.004,-0.013,107.0,111.0,104.0,13.3,1505.3,325.8,-0.7,1.9,2470.342,13.32,0.04,95.7
2020-02-14T08:52:03,42.805,6.029,0.015,0.007,-0.047,106.0,111.0,104.0,13.4,1505.3,325.8,-0.8,1.8,2470.301,13.33,0.016,65.0
2020-02-14T08:55:03,42.805,6.029,0.026,0.019,-0.013,108.0,110.0,103.0,13.4,1505.3,323.6,-0.7,1.8,2470.302,13.33,0.032,53.8
2020-02-14T08:58:03,42.805,6.029,0.02,-0.013,-0.005,107.0,109.0,103.0,13.3,1505.3,327.7,-0.7,1.8,2470.295,13.32,0.023,123.0
2020-02-14T09:04:03,42.805,6.029,0.037,0.001,-0.031,106.0,109.0,104.0,13.3,1505.3,324.0,-0.8,1.8,2470.347,13.31,0.037,88.5
2020-02-14T09:07:03,42.805,6.029,0.045,-0.006,-0.02,107.0,110.0,104.0,13.3,1505.3,326.1,-0.7,1.8,2470.329,13.31,0.045,97.6
2020-02-14T09:10:03,42.805,6.029,0.052,0.005,0.003,107.0,111.0,104.0,13.4,1505.3,323.5,-0.7,1.8,2470.335,13.32,0.052,84.5
2020-02-14T09:13:03,42.805,6.029,0.031,0.0,0.0,107.0,110.0,103.0,13.4,1505.3,327.6,-0.7,1.8,2470.344,13.32,0.03,90.0
2020-02-14T09:16:03,42.805,6.029,0.029,-0.004,-0.037,108.0,108.0,104.0,13.4,1505.3,324.9,-0.7,1.8,2470.339,13.32,0.029,97.8
2020-02-14T09:19:03,42.805,6.029,0.026,0.004,0.029,109.0,109.0,103.0,13.4,1505.3,322.6,-0.7,1.8,2470.347,13.32,0.026,81.3
2020-02-14T09:22:03,42.805,6.029,0.029,-0.012,-0.022,108.0,109.0,105.0,13.3,1505.3,327.8,-0.7,1.8,2470.365,13.32,0.031,112.5
2020-02-14T09:25:03,42.805,6.029,0.003,-0.02,-0.033,108.0,111.0,104.0,13.4,1505.3,324.2,-0.7,1.8,2470.399,13.32,0.02,171.5
2020-02-14T09:28:03,42.805,6.029,0.053,0.001,0.0,107.0,111.0,104.0,13.3,1505.3,327.2,-0.7,1.9,2470.394,13.33,0.053,88.9
2020-02-14T09:31:03,42.805,6.029,0.053,0.006,0.002,107.0,110.0,102.0,13.3,1505.3,326.4,-0.7,1.8,2470.347,13.33,0.053,83.5
2020-02-14T09:34:03,42.805,6.029,0.049,0.01,0.011,107.0,109.0,103.0,13.3,1505.3,323.9,-0.7,1.8,2470.38,13.33,0.05,78.5
2020-02-14T09:37:03,42.805,6.029,0.044,-0.009,-0.011,108.0,110.0,103.0,13.3,1505.3,327.3,-0.7,1.8,2470.388,13.32,0.044,101.6
2020-02-14T09:40:03,42.805,6.029,0.007,0.0,0.009,107.0,109.0,103.0,13.4,1505.3,327.0,-0.7,1.8,2470.353,13.33,0.007,90.0
2020-02-14T09:43:03,42.805,6.029,0.017,0.003,-0.009,107.0,109.0,104.0,13.4,1505.3,325.6,-0.7,1.8,2470.312,13.33,0.017,80.0
2020-02-14T09:46:03,42.805,6.029,0.026,-0.005,0.012,107.0,109.0,103.0,13.4,1505.3,325.7,-0.7,1.8,2470.387,13.33,0.026,100.9
2020-02-14T09:49:03,42.805,6.029,0.017,0.0,0.016,108.0,110.0,103.0,13.4,1505.3,323.7,-0.7,1.9,2470.355,13.33,0.017,90.0
2020-02-14T09:52:03,42.805,6.029,0.035,-0.005,-0.024,108.0,108.0,104.0,13.4,1505.3,328.2,-0.8,1.9,2470.34,13.33,0.035,98.1
2020-02-14T09:55:03,42.805,6.029,0.012,-0.014,-0.026,107.0,110.0,103.0,13.4,1505.3,324.5,-0.7,1.8,2470.363,13.33,0.018,139.4
2020-02-14T09:58:03,42.805,6.029,0.023,0.009,0.011,108.0,108.0,103.0,13.3,1505.3,325.7,-0.7,1.8,2470.367,13.33,0.024,68.6
2020-02-14T10:04:03,42.805,6.029,0.009,0.009,-0.023,110.0,111.0,104.0,13.4,1505.3,323.2,-0.8,1.8,2470.411,13.31,0.012,45.0
2020-02-14T10:07:03,42.805,6.029,0.02,0.001,-0.054,108.0,109.0,104.0,13.4,1505.3,324.4,-0.7,1.9,2470.404,13.31,0.02,87.1
2020-02-14T10:10:03,42.805,6.029,0.034,-0.009,0.0,108.0,110.0,104.0,13.4,1505.3,323.3,-0.7,1.8,2470.351,13.32,0.035,104.8